sat.trackr.live / text

‹ back to catalog

STARLINK-31788

NORAD 60055 · 2024-112T

PAYLOAD ACTIVE UNKNOWN

§ Identity

Operator
Country
US
Launch date
2024-06-08
Launch site
AFWTR
Launch vehicle
Mass (kg)
RCS (m²)

Purposes: comms

External: N2YO · Heavens-Above · Gunter

§ Orbital elements

Epoch: 2026-09-21T22:45:37.817568Z

Period
93.85 min
Inclination
53.1593°
Eccentricity
0.0001299
Mean motion
15.34378954 rev/d
Perigee alt
461.9 km
Apogee alt
463.7 km
Semi-major
6,840.9 km
B*
8.7818e-5
RAAN
245.0495°
Arg perigee
77.2971°
Mean anomaly
282.8176°
Rev number
12,866

§ Raw data

STARLINK-317881 60055U 24112T   26264.94835437  .00002590  00000+0  87818-4 0  99902 60055  53.1593 245.0495 0001299  77.2971 282.8176 15.34378954128663

JSON: /api/v1/satellites/60055 · /tle

For live sub-satellite position, see the globe view (requires WebGL).

§ Visibility from observer

Set your observer location to see the next 7 days of passes ≥ 10°. The values pass through the URL so the page stays shareable.

No JS? Fill the form by hand. The geolocation button needs JavaScript.